Weather History for Chadron, NE

Change the Weather History Date:

Sunday, May 6, 2012

  Actual Average Record
Temperature  
Mean Temperature 52 °F 52 °F  
Max Temperature 64 °F 67 °F 91 °F (2000)
Min Temperature 39 °F 37 °F 23 °F (1982)
Degree Days  
Heating Degree Days 13 13  
Month to date heating degree days 40 83  
Since 1 July heating degree days 5788 6846  
Cooling Degree Days 0 0  
Month to date cooling degree days 0 0  
Year to date cooling degree days 4 2  
Growing Degree Days 2 (Base 50)    
Moisture  
Dew Point 33 °F    
Average Humidity 55    
Maximum Humidity 86    
Minimum Humidity 24    
Precipitation  
Precipitation 0.00 in 0.09 in 1.07 in (1932)
Month to date precipitation 0.54 0.51  
Year to date precipitation 2.95 4.69  
Sea Level Pressure  
Sea Level Pressure 30.20 in    
Wind  
Wind Speed 8 mph (NW)    
Max Wind Speed 16 mph    
Max Gust Speed 24 mph    
Visibility 10 miles    
Events      
T = Trace of Precipitation, MM = Missing Value Source: NWS Daily Summary

Daily Weather History Graph

Daily Weather History Graph

Search for Another Location

Airport:

Trip Planner

Search our weather history database for the weather conditions in past years. The results will help you decide how hot, cold, wet, or windy it might be!

Date:

Astronomy

May. 06, 2012 Rise Set
Actual Time 5:39 AM MDT 7:59 PM MDT
Civil Twilight 5:07 AM MDT 8:30 PM MDT
Nautical Twilight 4:28 AM MDT 9:10 PM MDT
Astronomical Twilight 3:45 AM MDT 9:53 PM MDT
Moon 9:08 PM MDT (5/6) 5:50 AM MDT (5/6)
Length of Visible Light 15h 23m
Length of Day
14h 20m
Waxing Gibbous, 99% of the Moon is Illuminated
May 6
Waxing Gibbous
May 12
Last Quarter
May 20
New
May 28
First Quarter
Jun 4
Full

Hourly Weather History & Observations

Time (MDT) Temp. Windchill Dew Point Humidity Pressure Visibility Wind Dir Wind Speed Gust Speed Precip Events Conditions
12:53 AM 46.9 °F - 42.1 °F 83% 30.12 in 10.0 mi NW 8.1 mph - N/A   Overcast
1:20 AM 46.4 °F 43.5 °F 42.8 °F 87% 30.13 in 10.0 mi NW 5.8 mph - N/A   Overcast
2:34 AM 44.6 °F - 39.2 °F 81% 30.14 in 10.0 mi Calm Calm - N/A   Scattered Clouds
2:53 AM 43.0 °F 41.3 °F 37.9 °F 82% 30.15 in 10.0 mi West 3.5 mph - N/A   Clear
3:53 AM 43.0 °F 37.2 °F 36.0 °F 76% 30.17 in 10.0 mi WNW 10.4 mph - N/A   Clear
4:53 AM 42.1 °F 39.2 °F 36.0 °F 79% 30.20 in 10.0 mi NW 4.6 mph - N/A   Clear
5:53 AM 39.9 °F 34.5 °F 36.0 °F 86% 30.22 in 10.0 mi WNW 8.1 mph - N/A   Clear
6:53 AM 41.0 °F 34.7 °F 36.0 °F 82% 30.22 in 10.0 mi WNW 10.4 mph - N/A   Clear
7:53 AM 45.0 °F 38.9 °F 37.9 °F 76% 30.23 in 10.0 mi NW 12.7 mph 20.7 mph N/A   Clear
8:53 AM 48.9 °F - 37.9 °F 66% 30.22 in 10.0 mi WNW 16.1 mph - N/A   Clear
9:53 AM 54.0 °F - 36.0 °F 51% 30.22 in 10.0 mi NW 8.1 mph - N/A   Clear
10:53 AM 55.9 °F - 33.1 °F 42% 30.23 in 10.0 mi WNW 5.8 mph - N/A   Clear
11:53 AM 59.0 °F - 34.0 °F 39% 30.22 in 10.0 mi West 6.9 mph - N/A   Clear
12:53 PM 61.0 °F - 33.1 °F 35% 30.20 in 10.0 mi NNW 6.9 mph - N/A   Clear
1:53 PM 62.1 °F - 30.0 °F 30% 30.19 in 10.0 mi WNW 9.2 mph 19.6 mph N/A   Clear
2:53 PM 63.0 °F - 28.9 °F 28% 30.18 in 10.0 mi WNW 12.7 mph - N/A   Unknown
3:53 PM 63.0 °F - 27.0 °F 26% 30.18 in 10.0 mi NW 15.0 mph 20.7 mph N/A   Clear
4:53 PM 62.1 °F - 27.0 °F 26% 30.18 in 10.0 mi NNW 8.1 mph 24.2 mph N/A   Clear
5:53 PM 64.0 °F - 26.1 °F 24% 30.18 in 10.0 mi NNW 11.5 mph - N/A   Clear
6:53 PM 62.1 °F - 27.0 °F 26% 30.19 in 10.0 mi NNW 10.4 mph - N/A   Clear
7:53 PM 57.0 °F - 28.0 °F 33% 30.20 in 10.0 mi NW 9.2 mph - N/A   Clear
8:53 PM 55.0 °F - 30.0 °F 38% 30.22 in 10.0 mi NNW 8.1 mph - N/A   Clear
9:53 PM 52.0 °F - 30.0 °F 43% 30.25 in 10.0 mi NNW 5.8 mph - N/A   Clear
10:53 PM 48.9 °F - 32.0 °F 52% 30.27 in 10.0 mi NNE 6.9 mph - N/A   Clear
11:53 PM 46.9 °F - 33.1 °F 59% 30.27 in 10.0 mi East 4.6 mph - N/A   Clear